Flag for Germany Weather past 2 weeks in Varel, Lower Saxony, Germany

Now
63 °F

Passing clouds.


Feels Like: 63 °F
Forecast: 59 / 72 °F
Wind: 10 mph from East

Location: Wittmundhaven

Current Time: Sep 17, 2014 at 10:25:58 AM

Latest Report: Sep 17, 2014 at 9:20 AM


Visibility: N/A

Pressure: 30.01 "Hg

Humidity: 83%

Dew point: 57 °F

Location of VarelLocation

Historic Weather in Varel — Graph

°F

Varel temperature yesterday

Maximum temperature yesterday: 73 °F (at 3:20 PM)
Minimum temperature yesterday: 59 °F (at 4:20 AM)
Average temperature yesterday: 66 °F

Past Weeks' High & Low Weather Summary

 TemperatureHumidityPressure
High75 °F (Sep 5, 4:20 PM)100% (Sep 5, 11:20 PM)30.33 "Hg (Sep 5, 11:20 PM)
Low48 °F (Sep 12, 4:20 AM)53% (Sep 3, 1:20 PM)29.86 "Hg (Sep 6, 5:20 PM)
Average62 °F84%30.10 "Hg
* Reported Sep 2 9:20 AM — Sep 17 9:20 AM, Varel, Weather by CustomWeather, © 2014

Note: Actual official high and low records may vary slightly from our data, if they occured in-between our weather recording intervals... More about our weather records

Advertising

Varel weather history for previous 24 hours

 ConditionsComfort  
Time TempWeatherWind HumidityBarometerVisibility
9:20 AM
Sep 17
63 °FPassing clouds.10 mph83%30.01 "HgN/A
8:20 AM61 °FPassing clouds.10 mph88%30.01 "HgN/A
7:20 AM59 °FPassing clouds.7 mph88%30.01 "HgN/A
6:20 AM61 °FPassing clouds.8 mph88%30.01 "HgN/A
5:20 AM61 °FPassing clouds.10 mph88%30.01 "HgN/A
4:20 AM63 °FMild.10 mph88%30.01 "Hg3 mi
3:20 AM63 °FMild.9 mph88%30.01 "Hg2 mi
2:20 AM64 °FMild.8 mph83%30.01 "Hg2 mi
1:20 AM64 °FMild.8 mph83%30.01 "Hg2 mi
12:20 AM64 °FMild.8 mph83%30.01 "Hg2 mi
11:20 PM
Sep 16
66 °FMild.10 mph83%30.01 "Hg2 mi
10:20 PM64 °FMild.6 mph88%30.01 "Hg2 mi
9:20 PM66 °FMild.7 mph83%30.01 "Hg2 mi
8:20 PM68 °FMild.8 mph78%30.01 "Hg2 mi
7:20 PM70 °FMild.8 mph73%30.01 "Hg3 mi
6:20 PM73 °FPassing clouds.10 mph65%30.01 "HgN/A
5:20 PM73 °FPassing clouds.10 mph65%30.01 "HgN/A
4:20 PM73 °FScattered clouds.12 mph65%30.01 "HgN/A
3:20 PM73 °FPartly sunny.10 mph61%30.01 "HgN/A
2:20 PM72 °FPartly sunny.13 mph65%30.04 "HgN/A
1:20 PM72 °FPartly sunny.13 mph65%30.04 "HgN/A
12:20 PM70 °FScattered clouds.12 mph69%30.07 "HgN/A
11:20 AM68 °FScattered clouds.12 mph73%30.07 "HgN/A
10:20 AM66 °FScattered clouds.8 mph78%30.07 "HgN/A
Weather by CustomWeather, © 2014

See weather overviewHow to use our weather pages